Location: Zagreb
(45.8000°N, 16.0000°E)
Time: 16:29:56
(UTC+02:00)

Transit 2A - Visible Passes

Search period start: 10 August 2022 00:00
Search period end: 20 August 2022 00:00
Orbit: 601 x 956 km, 66.7° (Epoch: 09 August)

Date Brightness Start Highest point End Pass type
(mag) Time Alt. Az. Time Alt. Az. Time Alt. Az.
10 Aug 5.8 21:39:51 10° NW 21:44:11 66° WSW 21:47:13 20° SSE visible
11 Aug 5.5 21:05:29 10° NNW 21:09:51 82° ENE 21:13:58 13° SE visible
11 Aug 8.2 22:50:51 10° W 22:52:21 12° WSW 22:53:53 10° SW visible
12 Aug 7.8 22:15:14 10° WNW 22:18:12 18° WSW 22:21:16 10° SSW visible
13 Aug 7.3 21:40:19 10° NW 21:44:01 27° WSW 21:47:52 10° S visible
14 Aug 6.7 21:05:40 10° NW 21:09:47 40° WSW 21:14:05 10° S visible
15 Aug 6.1 20:31:10 10° NW 20:35:30 62° WSW 20:40:01 10° SSE visible
16 Aug 8.4 21:42:28 10° W 21:43:38 11° WSW 21:44:48 10° WSW visible
17 Aug 8.2 21:06:37 10° WNW 21:09:30 17° WSW 21:12:28 10° SSW visible
18 Aug 7.7 20:31:40 10° WNW 20:35:19 25° WSW 20:39:07 10° SSW visible
